Flag for U.S.A. Weather past 2 weeks in Sidney, Montana, U.S.A.

Now
64 °F

Sunny.


Feels Like: 64 °F
Forecast: 57 / 90 °F
Wind: 8 mph from Southwest

Location: Sidney-Richland

Current Time: Jul 31, 2014 at 7:32:35 AM

Latest Report: Jul 31, 2014 at 7:15 AM


Visibility: 10 mi

Pressure: 30.10 "Hg

Humidity: 73%

Dew point: 55 °F

Location of SidneyLocation

Historic Weather in Sidney — Graph

°F

Sidney temperature yesterday

Maximum temperature yesterday: 86 °F (at 5:35 PM)
Minimum temperature yesterday: 55 °F (at 4:55 AM)
Average temperature yesterday: 71 °F

Past Weeks' High & Low Weather Summary

 TemperatureHumidityPressure
High93 °F (Jul 20, 1:15 PM)94% (Jul 17, 5:35 AM)30.33 "Hg (Jul 17, 5:35 AM)
Low48 °F (Jul 16, 6:15 AM)15% (Jul 25, 5:35 PM)29.61 "Hg (Jul 24, 5:55 PM)
Average71 °F58%29.98 "Hg
* Reported Jul 16 6:15 AM — Jul 31 6:35 AM, Sidney, Weather by CustomWeather, © 2014

Note: Actual official high and low records may vary slightly from our data, if they occured in-between our weather recording intervals... More about our weather records

Advertising

Sidney weather history for previous 24 hours

 ConditionsComfort  
Time TempWeatherWind HumidityBarometerVisibility
6:35 AM
Jul 31
63 °FSunny.7 mph77%30.10 "Hg10 mi
6:15 AM63 °FPassing clouds.8 mph77%30.09 "Hg10 mi
5:55 AM63 °FPassing clouds.6 mph77%30.11 "Hg10 mi
5:35 AM63 °FPassing clouds.12 mph77%30.08 "Hg10 mi
5:15 AM61 °FPartly cloudy.12 mph83%30.09 "Hg10 mi
4:55 AM63 °FOvercast.7 mph83%30.12 "Hg7 mi
4:35 AM64 °FThundershowers. Partly cloudy.8 mph73%30.18 "Hg9 mi
4:15 AM64 °FPassing clouds.5 mph64%30.13 "Hg10 mi
3:55 AM64 °FClear.8 mph64%30.13 "Hg10 mi
3:35 AM63 °FClear.No wind68%30.13 "Hg10 mi
3:15 AM64 °FClear.No wind64%30.15 "Hg10 mi
2:55 AM63 °FPassing clouds.3 mph73%30.15 "Hg10 mi
2:35 AM64 °FPassing clouds.No wind64%30.16 "Hg10 mi
2:15 AM64 °FClear.No wind68%30.17 "Hg10 mi
1:55 AM64 °FPassing clouds.3 mph64%30.17 "Hg10 mi
1:35 AM64 °FPassing clouds.3 mph64%30.16 "Hg10 mi
1:15 AM64 °FClear.5 mph64%30.16 "Hg10 mi
12:55 AM66 °FPassing clouds.9 mph52%30.15 "Hg10 mi
12:35 AM66 °FClear.7 mph49%30.14 "Hg10 mi
12:15 AM63 °FClear.6 mph59%30.12 "Hg10 mi
11:55 PM
Jul 30
63 °FClear.3 mph59%30.11 "Hg10 mi
11:35 PM64 °FClear.No wind52%30.11 "Hg10 mi
11:15 PM63 °FClear.No wind56%30.11 "Hg10 mi
10:55 PM64 °FClear.No wind56%30.12 "Hg10 mi
10:35 PM66 °FClear.No wind52%30.12 "Hg10 mi
10:15 PM70 °FClear.No wind46%30.12 "Hg10 mi
9:55 PM70 °FClear.No wind46%30.13 "Hg10 mi
9:35 PM72 °FClear.No wind50%30.13 "Hg10 mi
9:15 PM72 °FSunny.3 mph50%30.12 "Hg10 mi
8:55 PM73 °FSunny.No wind50%30.13 "Hg10 mi
8:35 PM73 °FSunny.7 mph47%30.12 "Hg10 mi
8:15 PM77 °FSunny.6 mph44%30.12 "Hg10 mi
7:55 PM79 °FSunny.7 mph39%30.12 "Hg10 mi
7:35 PM81 °FSunny.8 mph37%30.12 "Hg10 mi
7:15 PM82 °FSunny.7 mph32%30.12 "Hg10 mi
6:55 PM82 °FSunny.9 mph32%30.12 "Hg10 mi
6:35 PM82 °FSunny.9 mph35%30.13 "Hg10 mi
5:55 PM84 °FSunny.7 mph33%30.13 "Hg8 mi
5:35 PM86 °FSunny.7 mph31%30.13 "Hg10 mi
5:15 PM84 °FSunny.6 mph33%30.13 "Hg10 mi
4:55 PM84 °FSunny.6 mph33%30.13 "Hg10 mi
4:35 PM84 °FSunny.8 mph33%30.14 "Hg10 mi
4:15 PM84 °FSunny.12 mph35%30.14 "Hg10 mi
3:55 PM84 °FSunny.7 mph35%30.15 "Hg10 mi
3:35 PM84 °FSunny.9 mph35%30.16 "Hg10 mi
2:55 PM84 °FSunny.10 mph37%30.16 "Hg10 mi
2:35 PM84 °FSunny.5 mph37%30.17 "Hg10 mi
2:15 PM82 °FSunny.6 mph40%30.17 "Hg10 mi
1:55 PM82 °FSunny.5 mph40%30.17 "Hg10 mi
1:35 PM82 °FSunny.8 mph40%30.18 "Hg10 mi
1:15 PM82 °FSunny.5 mph37%30.18 "Hg10 mi
12:55 PM82 °FSunny.5 mph37%30.18 "Hg10 mi
12:35 PM81 °FSunny.3 mph39%30.18 "Hg10 mi
11:55 AM81 °FSunny.8 mph39%30.19 "Hg10 mi
11:35 AM79 °FSunny.6 mph42%30.19 "Hg10 mi
11:15 AM79 °FSunny.3 mph42%30.20 "Hg10 mi
10:55 AM79 °FSunny.6 mph42%30.20 "Hg10 mi
10:35 AM75 °FSunny.7 mph54%30.20 "Hg10 mi
10:15 AM75 °FSunny.7 mph61%30.20 "Hg10 mi
9:55 AM73 °FSunny.5 mph65%30.20 "Hg10 mi
9:35 AM72 °FSunny.5 mph69%30.21 "Hg10 mi
9:15 AM70 °FSunny.3 mph69%30.21 "Hg10 mi
8:55 AM68 °FSunny.5 mph73%30.21 "Hg10 mi
8:35 AM68 °FSunny.5 mph73%30.21 "Hg10 mi
8:15 AM66 °FSunny.No wind73%30.21 "Hg10 mi
7:55 AM64 °FSunny.No wind78%30.21 "Hg10 mi
7:35 AM64 °FSunny.No wind73%30.22 "Hg10 mi
7:15 AM61 °FSunny.No wind83%30.21 "Hg10 mi
Weather by CustomWeather, © 2014

See weather overviewHow to use our weather pages